Regional Weather Roundup
Issued by NWS

Home | Current Version | Previous Version | Graphics & Text | Print | Product List | Glossary On
Versions: 1 2 3 4 5 6 7 8 9 10 11 12 13 14 15 16 17 18 19 20 21 22 23 24 25 26 27 28 29 30 31 32 33 34 35 36 37 38 39 40 41 42 43 44 45 46 47 48 49 50
000
ASUS45 KCYS 290510
RWRWY

WYOMING REGIONAL WEATHER ROUNDUP
NATIONAL WEATHER SERVICE CHEYENNE WY
1000 PM MST SUN DEC 28 2014

NOTE:  "FAIR" INDICATES FEW OR NO CLOUDS BELOW 12,000 FEET
WITH NO SIGNIFICANT WEATHER AND/OR OBSTRUCTIONS TO VISIBILITY.

WYZ001-290600-
YELLOWSTONE NATIONAL PARK

CITY           SKY/WX    TMP DP  RH WIND       PRES   REMARKS
LK YELLOWSTONE   N/A      8   4  83 NW3       29.94R
W YELLOWSTONE  NOT AVBL

$$
WYZ002>013-054>058-071-098>099-290600-
NORTHERN WYOMING

CITY           SKY/WX    TMP DP  RH WIND       PRES   REMARKS
JACKSON        MOCLDY     5   3  92 N6        29.97R WCI  -6
CODY           CLOUDY    12   9  85 N14       30.10R WCI  -3
GREYBULL       FAIR      17   9  70 NW16      30.09R WCI   2
WORLAND        CLOUDY    14  11  87 W6        30.09R WCI   5
SHERIDAN       LGT SNOW  16  11  80 NW23      30.15R WCI  -2
BUFFALO        MIX PCPN  15  11  83 N22G35    30.06R WCI  -3
GILLETTE       LGT SNOW  20  17  88 N9        30.05R FOG     WCI   9
HULETT           N/A    N/A N/A N/A MISG        N/A
NEWCASTLE      MOCLDY    19  16  86 CALM      30.05R

$$
WYZ014>020-022>026-101>103-290600-
CENTRAL WYOMING

CITY           SKY/WX    TMP DP  RH WIND       PRES   REMARKS
BIG PINEY      FAIR     -11 -13  91 N7        29.95R FOG     WCI -26
PINEDALE       MOCLDY    -4  -6  92 CALM      29.95R
DUBOIS         NOT AVBL
LANDER         CLOUDY    12   4  70 W14       29.99R WCI  -3
RIVERTON       LGT SNOW  17  12  80 N9        30.01R WCI   6
CASPER         CLOUDY    19  14  81 N14       29.99R WCI   6
DOUGLAS        LGT SNOW  20  17  88 N7        29.99R FOG     WCI  11

$$
WYZ021-027>030-104>119-290600-
SOUTHERN WYOMING

CITY           SKY/WX    TMP DP  RH WIND       PRES   REMARKS
EVANSTON       LGT SNOW  15  13  91 S5        29.94F FOG     WCI   8
FORT BRIDGER   FAIR      14  11  87 SW12      29.97R WCI   0
ROCK SPRINGS   MOCLDY    12   8  84 W6        29.95S WCI   3
DIXON          CLOUDY     7   3  86 NE3       30.00R
RAWLINS        CLOUDY    14  10  84 SW5       29.93R WCI   6
SARATOGA       CLOUDY    14  10  85 W10       29.93R WCI   1
LARAMIE        FAIR       9   6  88 NE6       29.87R WCI  -1
CHEYENNE       FAIR      14   5  67 SW8       29.90R WCI   3
TORRINGTON     LGT SNOW  21  18  88 N6        29.98R FOG     WCI  13
PINE BLUFFS    FLURRIES  21  18  86 S3        29.95R

$$



USA.gov is the U.S. government's official web portal to all federal, state and local government web resources and services.